Location: Newark
(48.6461°N, 4.3644°W)
Time: 02:19:05
(UTC+00:00)

A-11 Canister half - Pass Details

Date: 03 February 2020
Orbit: 1517 x 1683 km, 47.2° (Epoch: 26 February)

Event Time Altitude Azimuth Distance (km) Brightness Sun altitude
Rises 18:54:06 0° 176° (S) 4,825 11.7 -16.0°
Reaches altitude 10° 18:59:10 10° 155° (SSE) 3,808 10.9 -16.9°
Maximum altitude 19:03:48 15° 125° (SE) 3,422 10.4 -17.6°
Enters shadow 19:04:26 14° 121° (ESE) 3,425 10.4 -17.7°
